Weather History for Kansas City International, MO

Change the Weather History Date:

Tuesday, January 29, 2013

  Actual Average Record
Temperature  
Mean Temperature 51 °F 30 °F  
Max Temperature 68 °F 39 °F 68 °F (2013)
Min Temperature 34 °F 20 °F -7 °F (1977)
Degree Days  
Heating Degree Days 14 36  
Month to date heating degree days 898 1044  
Since 1 July heating degree days 2736 3086  
Cooling Degree Days 0 0  
Month to date cooling degree days 0 0  
Year to date cooling degree days 0 0  
Growing Degree Days 1 (Base 50)    
Moisture  
Dew Point 43 °F    
Average Humidity 87    
Maximum Humidity 100    
Minimum Humidity 73    
Precipitation  
Precipitation 0.59 in 0.04 in 1.82 in (1982)
Month to date precipitation 0.91 0.98  
Year to date precipitation 0.91 0.98  
Snow  
Snow 0.00 in 0.20 in 4.00 in (1956)
Month to date snowfall T 4.3  
Since 1 July snowfall 3.7 10.5  
Snow Depth 0.00 in    
Sea Level Pressure  
Sea Level Pressure 29.57 in    
Wind  
Wind Speed 14 mph (NNW)    
Max Wind Speed 29 mph    
Max Gust Speed 39 mph    
Visibility 5 miles    
Events Rain , Thunderstorm    
T = Trace of Precipitation, MM = Missing Value Source: NWS Daily Summary

Daily Weather History Graph

Daily Weather History Graph

Search for Another Location

Airport:

Trip Planner

Search our weather history database for the weather conditions in past years. The results will help you decide how hot, cold, wet, or windy it might be!

Date:

Astronomy

Jan. 29, 2013 Rise Set
Actual Time 7:28 AM CST 5:36 PM CST
Civil Twilight 6:59 AM CST 6:04 PM CST
Nautical Twilight 6:27 AM CST 6:37 PM CST
Astronomical Twilight 5:56 AM CST 7:08 PM CST
Moon 8:31 PM CST (1/29) 8:26 AM CST (1/29)
Length of Visible Light 11h 05m
Length of Day
10h 08m
Waning Gibbous, 93% of the Moon is Illuminated
Jan 29
Waning Gibbous
Feb 3
Last Quarter
Feb 10
New
Feb 17
First Quarter
Feb 25
Full

Hourly Weather History & Observations

Time (CST) Temp. Windchill Dew Point Humidity Pressure Visibility Wind Dir Wind Speed Gust Speed Precip Events Conditions
12:53 AM 68.0 °F - 59.0 °F 73% 29.59 in 10.0 mi South 25.3 mph 34.5 mph N/A   Overcast
1:07 AM 66.2 °F - 59.0 °F 78% 29.60 in 10.0 mi SSW 23.0 mph 32.2 mph N/A   Overcast
1:53 AM 68.0 °F - 59.0 °F 73% 29.57 in 10.0 mi SSW 26.5 mph 36.8 mph N/A   Overcast
2:08 AM 68.0 °F - 59.0 °F 73% 29.60 in 10.0 mi SSW 19.6 mph 35.7 mph N/A   Overcast
2:19 AM 68.0 °F - 59.0 °F 73% 29.60 in 10.0 mi SSW 27.6 mph 38.0 mph N/A   Mostly Cloudy
2:53 AM 66.9 °F - 59.0 °F 76% 29.57 in 10.0 mi SSW 21.9 mph 33.4 mph N/A   Overcast
3:53 AM 66.9 °F - 59.0 °F 76% 29.57 in 10.0 mi SSW 24.2 mph 35.7 mph N/A   Mostly Cloudy
4:17 AM 66.2 °F - 59.0 °F 78% 29.59 in 10.0 mi SSW 18.4 mph 24.2 mph N/A   Mostly Cloudy
4:53 AM 66.0 °F - 59.0 °F 78% 29.57 in 10.0 mi SW 17.3 mph 24.2 mph N/A   Mostly Cloudy
5:53 AM 64.9 °F - 57.9 °F 78% 29.56 in 10.0 mi SSW 18.4 mph 27.6 mph N/A   Mostly Cloudy
6:22 AM 64.4 °F - 57.2 °F 77% 29.58 in 10.0 mi SSW 16.1 mph - N/A   Mostly Cloudy
6:53 AM 52.0 °F - 48.0 °F 86% 29.57 in 9.0 mi NW 16.1 mph 21.9 mph N/A   Overcast
7:00 AM 48.2 °F - 44.6 °F 87% 29.59 in 8.0 mi NW 15.0 mph 25.3 mph N/A Rain Light Rain
7:07 AM 48.2 °F - 44.6 °F 87% 29.61 in 5.0 mi NW 15.0 mph 24.2 mph N/A Rain Rain
7:18 AM 46.4 °F 40.4 °F 44.6 °F 93% 29.62 in 3.0 mi NW 13.8 mph - 0.11 in Rain , Thunderstorm Thunderstorms and Rain
7:44 AM 44.6 °F 39.2 °F 42.8 °F 93% 29.62 in 7.0 mi NW 10.4 mph - 0.12 in   Overcast
7:53 AM 45.0 °F 39.7 °F 42.1 °F 90% 29.61 in 8.0 mi NW 10.4 mph - 0.12 in   Overcast
8:53 AM 43.0 °F 37.7 °F 43.0 °F 100% 29.66 in 4.0 mi WNW 9.2 mph - 0.02 in Rain Light Rain
9:00 AM 42.8 °F 37.5 °F 42.8 °F 100% 29.66 in 4.0 mi NW 9.2 mph - 0.00 in Rain Light Rain
9:51 AM 42.8 °F 39.3 °F 41.0 °F 93% 29.65 in 3.0 mi NNW 5.8 mph - 0.04 in Rain , Thunderstorm Thunderstorms and Rain
9:53 AM 42.1 °F 37.7 °F 41.0 °F 96% 29.64 in 3.0 mi NNW 6.9 mph - 0.05 in Rain , Thunderstorm Thunderstorms and Rain
10:01 AM 41.0 °F 36.4 °F 41.0 °F 100% 29.65 in 2.5 mi NNW 6.9 mph - 0.04 in Rain , Thunderstorm Thunderstorms and Rain
10:23 AM 41.0 °F 35.2 °F 39.2 °F 93% 29.62 in 2.5 mi NNW 9.2 mph - 0.11 in Rain Rain
10:33 AM 41.0 °F 35.8 °F 39.2 °F 93% 29.63 in 2.5 mi NNW 8.1 mph - 0.13 in Rain Light Rain
10:43 AM 41.0 °F 35.8 °F 39.2 °F 93% 29.63 in 3.0 mi North 8.1 mph - 0.13 in Rain Light Rain
10:50 AM 41.0 °F 38.0 °F 41.0 °F 100% 29.64 in 4.0 mi NNE 4.6 mph - 0.13 in Rain Light Rain
10:53 AM 41.0 °F 39.0 °F 41.0 °F 100% 29.63 in 4.0 mi NNE 3.5 mph - 0.13 in Rain Light Rain
11:53 AM 39.9 °F 35.1 °F 39.9 °F 100% 29.59 in 3.0 mi NNW 6.9 mph - 0.06 in Rain Light Rain
12:40 PM 41.0 °F 33.9 °F 39.2 °F 93% 29.52 in 1.5 mi ENE 12.7 mph - 0.04 in Rain Light Rain
12:53 PM 41.0 °F 35.2 °F 39.9 °F 96% 29.54 in 1.5 mi NNW 9.2 mph - 0.04 in   Overcast
1:53 PM 39.0 °F 31.8 °F 37.9 °F 96% 29.48 in 1.5 mi NNE 11.5 mph - 0.00 in Rain Light Rain
2:00 PM 39.2 °F 31.6 °F 37.4 °F 93% 29.51 in 1.5 mi North 12.7 mph - 0.00 in Rain Light Rain
2:14 PM 37.4 °F 29.3 °F 37.4 °F 100% 29.54 in 0.5 mi NNW 12.7 mph - 0.00 in Rain Light Rain
2:53 PM 37.0 °F 28.5 °F 36.0 °F 96% 29.47 in 1.0 mi North 13.8 mph 23.0 mph 0.00 in   Overcast
3:08 PM 37.4 °F 29.8 °F 35.6 °F 93% 29.52 in 3.0 mi North 11.5 mph - N/A   Overcast
3:38 PM 37.4 °F 29.3 °F 35.6 °F 93% 29.52 in 3.0 mi North 12.7 mph - N/A   Overcast
3:53 PM 37.0 °F 30.4 °F 37.0 °F 100% 29.58 in 3.0 mi WNW 9.2 mph - N/A   Overcast
4:53 PM 36.0 °F 28.5 °F 36.0 °F 100% 29.52 in 3.0 mi North 10.4 mph - N/A   Overcast
5:06 PM 35.6 °F 28.0 °F 35.6 °F 100% 29.53 in 1.0 mi North 10.4 mph - N/A   Overcast
5:28 PM 35.6 °F 27.1 °F 35.6 °F 100% 29.53 in 0.5 mi North 12.7 mph - N/A   Overcast
5:53 PM 36.0 °F 28.0 °F 34.0 °F 93% 29.59 in 0.5 mi NNW 11.5 mph - N/A   Overcast
6:10 PM 35.6 °F 27.5 °F 33.8 °F 93% 29.56 in 1.0 mi North 11.5 mph - 0.00 in Rain Light Rain
6:53 PM 36.0 °F 27.5 °F 34.0 °F 93% 29.55 in 1.0 mi North 12.7 mph - 0.01 in Rain Light Rain
7:53 PM 36.0 °F 29.6 °F 34.0 °F 93% 29.58 in 1.0 mi NNW 8.1 mph - 0.03 in Rain Light Rain
8:53 PM 36.0 °F 27.1 °F 34.0 °F 93% 29.55 in 1.0 mi NNE 13.8 mph - 0.05 in Rain Light Rain
9:08 PM 35.6 °F 26.2 °F 33.8 °F 93% 29.52 in 8.0 mi NNE 15.0 mph - 0.02 in Rain Light Rain
9:53 PM 35.1 °F 27.9 °F 33.1 °F 92% 29.55 in 10.0 mi North 9.2 mph - 0.05 in Rain Light Rain
10:53 PM 35.1 °F 24.1 °F 33.1 °F 92% 29.46 in 10.0 mi NE 19.6 mph 25.3 mph 0.02 in   Overcast
11:53 PM 34.0 °F 27.2 °F 34.0 °F 100% 29.55 in 10.0 mi NNW 8.1 mph - N/A   Overcast